Tracking 28126 objects as of 2-Oct-2023
HD Live streaming from Space Station
objects crossing your sky now

STARLINK-6369

Track STARLINK-6369 now!
10-day predictions
STARLINK-6369 is classified as:


NORAD ID: 57374
Int'l Code: 2023-099AY
Perigee: 453.6 km
Apogee: 455.6 km
Inclination: 43.0 °
Period: 93.5 minutes
Semi major axis: 6825 km
RCS: Unknown
Launch date: July 16, 2023
Source: United States (US)
Launch site: AIR FORCE EASTERN TEST RANGE (AFETR)
Your satellite tracking list
Your tracking list is empty




NASA's NSSDC Master Catalog

Two Line Element Set (TLE):
1 57374U 23099AY  23274.91667824 -.00930901  00000-0 -25268-1 0  9998
2 57374  43.0001  21.1109 0001499 276.8469   9.1340 15.39539127 13269
Source of the keplerian elements: AFSPC